2021-029B

Last updated on Wed Apr 14 2021 00:02:14 GMT+0000 (Coordinated Universal Time)

1 48160U 21029B 21103.05008453 .28552164 12949-4 14332-3 0 9993 2 48160 51.6279 302.6685 0011254 43.8669 316.4662 16.54839101 613

Satellite not in orbit